Location: Bjelajci
(45.0103°N, 16.1758°E)
Time: 09:58:01
(UTC+00:00)

SL-8 R/B - Pass Details

Date: 14 July 2020
Orbit: 656 x 668 km, 48.4° (Epoch: 07 August)

Event Time Altitude Azimuth Distance (km) Brightness Sun altitude
Exits shadow 00:08:40 59° 191° (S) 768 3.6 -21.6°
Maximum altitude 00:09:15 65° 152° (SSE) 730 3.6 -21.6°
Drops below altitude 10° 00:14:00 10° 71° (ENE) 2,082 6.7 -21.3°
Sets 00:16:22 0° 69° (ENE) 2,995 7.7 -21.2°
